Tracking 28790 objects as of 19-Apr-2024
HD Live streaming from Space Station
objects crossing your sky now

CZ-6A DEB

Track CZ-6A DEB now!
10-day predictions


NORAD ID: 54504
Int'l Code: 2022-151JG
Perigee: 830.7 km
Apogee: 891.3 km
Inclination: 98.8 °
Period: 102.0 minutes
Semi major axis: 7232 km
RCS: Unknown
Launch date: November 11, 2022
Source: People's Republic of China (PRC)
Launch site: Taiyaun Space Center, China (TSC)

Note: This is SATELLITE DEBRIS
Your satellite tracking list
Your tracking list is empty




NASA's NSSDC Master Catalog

Two Line Element Set (TLE):
1 54504U 22151JG  24109.96072973  .00003238  00000-0  17907-2 0  9990
2 54504  98.8373 116.4987 0041926  17.4693 342.7910 14.11606692 73671
Source of the keplerian elements: AFSPC